Wind_Speed
58 59 59 59 58 58 57 57 56 56 55 55 54 54 54 54 54 54 55 55 55 55 55 54 54 54 54 54 53 54 54 55 55 55 55 55 55 55 56 55 55 56 56 56 56 57 58 58 59 61 62 64 64 65 66 67 69 70 70 69 69 71 73 74 75 73 71 69 69 67 66 66 66 65 64 64 65 66 67 67 67 67 66 64 63
60 60 61 62 62 61 61 60 60 59 59 58 57 56 55 55 55 56 56 56 57 57 57 57 57 57 57 57 57 56 57 57 57 58 58 58 58 58 57 58 58 57 58 58 58 58 59 59 60 61 62 63 63 64 65 66 68 69 71 71 70 71 72 74 76 77 77 76 76 75 74 73 73 71 70 69 69 70 71 71 71 71 70 68 66
61 61 63 63 63 62 62 62 63 62 62 62 62 60 59 58 58 58 58 58 58 59 59 59 60 60 60 60 59 60 60 60 60 60 60 60 60 60 60 59 59 59 59 60 60 60 60 61 61 62 63 63 64 64 64 65 66 67 69 71 71 71 71 72 73 75 78 79 80 80 80 80 80 78 77 76 77 76 76 76 75 75 73 72 71
59 59 62 63 62 62 63 63 64 64 64 64 65 64 64 63 62 61 61 61 61 61 61 61 62 63 63 62 62 62 63 63 64 64 63 63 63 63 62 62 61 61 61 61 62 62 62 62 63 63 64 64 65 66 66 66 66 67 68 69 70 71 72 72 72 72 73 76 78 80 81 82 83 82 82 82 82 82 82 81 79 77 75 74 74
56 57 60 61 60 60 61 62 62 63 64 65 67 67 67 66 66 65 64 65 64 64 63 64 64 64 65 65 65 65 66 67 67 67 67 67 67 66 65 65 64 64 64 64 64 64 64 65 65 66 66 66 67 67 68 68 68 68 68 69 69 70 72 73 73 73 73 73 75 76 77 79 81 82 83 83 83 83 83 82 81 79 76 75 74
56 57 58 58 58 59 60 60 60 60 62 64 66 67 67 67 67 67 67 67 67 67 67 67 66 66 66 67 67 68 69 70 70 70 70 70 70 69 69 68 68 68 67 67 67 67 67 67 67 68 68 69 69 69 70 70 70 70 70 70 70 70 71 72 73 74 74 74 75 75 76 76 77 79 81 81 82 82 83 82 82 81 80 79 78
58 59 59 59 59 60 60 59 59 59 60 61 63 65 65 65 66 67 69 69 69 70 70 69 69 69 69 69 70 71 72 72 73 73 73 73 73 73 73 73 73 72 71 71 70 70 69 69 69 69 70 71 72 72 72 73 73 73 73 72 72 72 72 73 73 74 75 75 76 76 77 76 76 78 79 80 80 81 81 82 82 83 84 84 84
61 62 61 60 61 62 61 60 60 60 60 61 62 63 64 63 64 65 67 69 70 71 71 71 72 72 72 72 73 74 74 74 75 76 77 77 77 77 77 77 76 76 75 75 74 74 73 73 72 72 72 73 73 73 74 75 75 75 76 75 75 75 74 75 75 75 76 76 77 78 78 78 78 78 79 79 79 79 80 80 80 81 82 83 84
64 64 64 63 63 64 64 63 62 62 62 62 62 63 63 63 62 63 64 65 67 68 69 71 72 73 73 74 76 77 77 77 79 80 80 80 80 80 80 80 79 79 79 78 78 78 77 77 76 76 76 76 76 75 75 76 76 77 77 78 78 77 77 77 78 78 78 78 79 79 79 80 80 81 81 80 80 79 80 80 80 80 81 81 82
66 66 66 66 66 66 66 66 65 65 64 64 64 64 64 63 63 62 62 63 64 65 67 69 71 71 72 74 77 79 79 81 82 83 83 82 81 81 82 82 82 82 82 82 81 81 81 81 81 81 81 80 79 79 79 78 78 78 79 79 79 79 80 80 80 80 80 80 81 81 81 82 83 83 83 83 82 81 81 81 81 81 82 82 82
69 69 69 69 69 69 69 69 68 67 67 66 66 66 65 65 65 64 63 64 64 64 66 68 69 70 72 74 76 77 78 81 83 84 85 84 84 84 83 84 84 84 84 84 84 84 85 84 84 85 85 84 83 83 82 82 81 81 81 81 81 81 81 82 82 82 83 83 83 83 84 84 85 86 86 86 85 85 84 84 83 83 84 84 84
72 72 72 71 71 72 71 71 71 70 70 69 69 68 68 67 67 67 66 66 65 65 66 67 68 70 71 73 74 75 77 79 81 83 85 86 87 87 86 86 86 85 86 86 87 87 88 88 88 88 88 87 87 87 86 86 85 85 84 84 84 84 84 84 84 84 85 85 85 85 86 86 87 87 88 88 88 88 87 86 86 86 86 86 86
73 74 73 73 73 73 73 72 72 72 72 72 71 71 70 70 70 69 69 68 67 67 67 67 68 69 70 71 73 74 75 77 78 80 82 84 87 88 88 88 88 88 88 88 88 89 89 90 90 90 90 90 90 90 90 89 89 88 88 88 87 87 87 87 87 87 87 87 86 87 88 88 88 89 89 90 90 90 90 89 88 88 88 88 88
76 76 75 75 74 74 73 73 73 73 73 73 73 73 73 72 72 72 71 70 70 69 69 69 69 70 71 71 72 72 73 75 76 77 79 81 84 86 87 88 89 90 91 91 91 91 91 92 92 92 92 93 93 93 92 92 91 91 91 91 91 91 90 90 90 90 90 90 90 89 90 90 90 90 91 91 91 92 92 92 91 90 89 89 89
79 79 78 78 76 75 75 75 74 74 74 74 74 74 74 74 74 74 73 73 72 71 71 71 71 71 72 72 72 72 72 73 74 76 78 80 82 83 84 86 88 89 90 91 92 93 94 94 94 94 93 94 94 94 94 94 94 94 94 94 94 94 94 94 94 94 94 94 93 93 93 94 94 94 94 94 94 95 95 95 95 94 93 92 92
81 81 81 80 79 78 77 76 76 76 75 75 75 75 75 75 75 75 75 74 74 73 73 72 73 73 74 73 73 72 72 72 73 75 77 79 81 83 84 86 87 89 89 90 90 92 93 94 95 95 95 95 96 96 96 96 95 95 95 96 96 96 96 97 97 98 98 97 96 96 97 97 98 98 98 98 98 98 98 98 98 98 98 97 96
82 82 82 81 80 80 79 78 77 77 77 76 76 76 76 76 76 76 75 75 75 75 74 74 74 75 75 74 73 73 73 73 74 75 77 79 81 83 85 87 89 90 91 91 92 92 92 93 93 94 94 95 96 97 97 97 97 97 96 96 97 97 98 99 100 100 99 99 99 99 99 100 100 101 101 101 102 102 101 101 102 103 102 101 100
83 82 82 81 81 80 79 78 78 77 78 77 77 77 77 77 77 76 76 76 75 75 75 75 75 75 75 74 74 73 73 74 75 76 77 79 81 83 85 87 89 90 91 92 93 93 94 94 93 93 93 93 94 95 96 97 98 98 99 99 99 99 99 100 100 100 99 99 100 100 101 101 102 102 103 103 104 105 104 104 105 106 105 104 104
82 81 81 81 81 80 79 78 78 78 78 78 78 77 77 77 77 77 77 76 76 76 76 76 76 76 75 74 74 74 74 74 75 77 78 80 81 83 84 85 87 88 90 91 92 93 94 95 95 95 94 93 92 93 93 95 96 97 98 99 100 101 102 102 102 101 101 101 101 101 101 102 102 103 104 104 106 106 106 105 106 107 107 106 106
78 79 79 79 79 79 78 78 78 78 78 78 78 78 78 78 78 78 78 78 77 77 77 77 76 76 75 75 75 74 74 75 76 77 78 79 80 82 83 84 84 85 86 88 90 92 93 94 95 96 96 95 93 92 91 91 92 94 95 96 98 99 101 102 102 102 103 103 104 104 104 104 105 105 106 107 108 108 108 108 108 108 108 107 107
73 74 74 75 75 75 75 76 76 76 76 76 77 77 78 78 78 78 78 78 78 78 78 77 77 76 76 76 75 75 75 76 77 78 78 78 79 81 82 82 82 83 84 85 87 89 91 92 93 94 95 95 95 93 92 91 90 90 90 92 93 95 97 98 99 99 100 101 103 104 105 105 106 107 108 109 110 111 112 112 112 111 111 110 111
69 70 70 70 70 71 72 72 73 73 73 73 74 75 76 76 76 77 77 78 78 79 78 78 78 77 76 76 75 75 76 77 78 78 78 78 79 79 80 80 80 81 81 82 84 86 88 89 90 91 92 92 93 93 92 91 90 88 88 88 88 88 89 90 91 92 93 95 96 97 99 100 101 103 105 107 109 110 111 112 113 114 114 114 113
66 66 67 67 68 68 69 70 70 70 70 70 71 72 73 73 73 73 74 75 76 77 77 78 77 76 76 76 76 76 77 77 78 79 78 78 78 78 78 78 77 77 78 78 80 82 83 84 85 87 88 89 89 89 89 89 88 87 86 85 84 83 82 81 82 83 84 85 87 88 90 92 95 97 99 102 103 105 107 109 110 112 112 113 113
62 63 63 64 65 66 66 67 67 67 67 67 68 69 69 69 69 69 70 71 72 73 74 74 74 74 75 75 76 76 77 77 78 78 78 78 78 77 76 74 74 73 73 74 75 76 78 79 80 81 82 83 84 84 84 84 84 83 82 81 80 78 76 75 75 75 76 77 79 81 83 86 89 92 95 97 99 100 102 103 105 106 106 106 106
59 60 61 62 62 63 63 63 64 64 64 64 65 66 66 65 65 65 66 66 67 68 69 69 70 70 71 72 74 74 75 75 75 75 75 75 75 74 73 72 71 70 69 70 70 71 73 73 74 76 76 77 77 77 78 78 79 78 77 76 74 73 72 72 71 72 72 73 75 77 80 83 87 90 92 94 95 96 96 97 97 97 96 94 92
56 57 59 60 60 60 61 61 60 60 60 61 62 62 62 62 62 62 62 62 63 63 63 64 65 65 66 68 69 70 70 70 70 70 71 71 71 71 71 70 69 68 67 66 66 66 67 68 69 70 70 71 72 72 73 73 72 72 71 70 69 69 69 69 69 69 69 70 72 75 78 82 85 87 89 90 90 90 90 89 88 87 85 83 80
53 55 56 57 56 56 57 56 56 56 57 58 58 59 58 58 58 58 58 58 59 59 59 60 60 61 62 63 64 64 65 66 66 66 66 66 67 68 68 69 69 68 66 65 63 63 63 63 63 63 64 65 65 66 66 66 66 67 67 67 66 65 65 65 65 65 66 67 70 73 76 79 80 81 82 82 82 82 82 80 79 79 77 75 73
52 53 54 53 52 52 51 51 51 53 53 54 54 54 53 53 53 53 54 54 55 55 56 56 56 57 58 58 59 60 60 61 62 62 63 64 64 65 66 67 67 67 66 65 64 63 62 61 61 60 60 60 60 61 61 62 63 64 64 63 62 61 60 61 61 62 63 65 67 69 72 73 73 73 73 73 74 74 73 72 71 71 70 68 66
51 51 50 49 49 49 49 49 50 50 51 51 50 50 50 50 51 51 52 53 53 53 53 54 54 54 54 55 55 56 57 58 60 60 61 61 62 63 63 64 65 65 65 65 64 63 62 61 60 60 59 58 58 58 58 59 60 60 59 58 57 57 57 58 58 59 60 61 63 64 65 65 65 66 66 66 67 67 66 64 64 63 63 62 62
50 49 49 48 48 48 48 49 49 49 49 49 48 48 49 50 51 52 52 52 52 51 51 52 52 52 53 53 54 55 57 58 58 59 59 59 60 60 61 61 62 62 62 62 62 61 60 58 57 56 54 53 53 53 54 54 55 55 54 53 53 54 55 56 56 57 57 58 58 59 59 59 59 59 59 60 60 60 59 58 58 58 58 58 58
49 49 48 48 48 49 49 49 48 48 48 48 48 47 48 49 50 50 50 50 49 50 50 50 51 52 52 54 54 55 56 57 57 58 58 58 59 59 60 60 60 60 60 59 58 57 56 55 53 50 48 47 47 48 49 50 50 50 50 50 50 51 52 52 53 53 54 54 53 52 52 53 54 54 53 54 55 55 54 54 53 53 53 53 54
48 47 47 48 48 49 49 48 47 47 48 48 48 47 47 47 47 47 47 47 48 48 49 49 50 51 52 53 54 54 55 55 56 56 57 57 58 58 58 59 59 58 58 57 56 55 52 49 46 44 43 43 44 44 44 44 44 45 45 46 46 46 46 48 48 49 49 49 48 47 48 48 49 49 49 49 50 51 51 50 49 48 49 50 51
45 45 46 47 47 47 46 45 45 46 46 46 46 46 46 46 46 46 46 46 47 47 48 49 49 50 50 51 52 52 53 53 53 54 54 54 55 55 55 54 54 54 54 53 51 47 44 42 40 40 40 40 39 38 38 38 39 40 40 40 40 41 42 43 43 44 44 44 43 43 44 44 44 45 45 46 47 48 47 46 45 44 45 47 48
42 42 43 44 44 44 43 42 42 43 43 44 44 45 45 45 45 45 45 45 46 46 47 47 47 48 49 49 49 50 50 50 50 51 51 50 50 49 49 49 49 49 48 46 42 38 37 37 37 36 35 34 33 34 34 35 35 36 36 36 37 37 38 38 38 38 39 39 39 39 40 40 41 43 44 44 44 44 43 41 40 40 42 44 45
40 40 41 41 41 40 40 40 40 40 40 41 41 41 42 42 42 43 43 43 43 44 44 45 45 45 45 46 46 47 47 47 47 46 46 45 44 44 45 45 45 44 40 36 33 32 33 33 33 32 30 30 31 31 31 31 31 32 32 33 33 34 34 34 34 35 35 36 37 37 38 39 40 40 41 41 40 39 38 37 37 38 40 41 43
37 37 37 37 37 36 36 36 36 36 36 37 37 37 38 39 39 39 39 39 40 40 40 41 41 41 42 42 42 42 42 42 41 40 39 39 40 41 41 41 40 36 31 28 28 29 30 30 30 29 28 28 28 28 28 28 28 29 30 31 31 31 31 31 31 32 33 34 34 35 36 37 37 37 36 36 35 34 33 33 34 36 37 39 40
34 33 33 33 33 32 32 32 32 32 32 33 33 34 34 34 34 35 35 36 36 36 36 37 37 37 38 38 38 37 37 36 35 34 34 35 36 38 38 36 33 29 26 25 26 26 26 27 27 27 26 25 25 25 25 26 26 27 27 27 27 27 27 28 28 29 29 30 30 31 32 33 33 33 32 32 31 30 30 31 32 34 35 35 36
31 30 30 30 30 30 30 30 29 29 30 30 30 30 31 31 31 32 32 32 33 33 33 33 33 33 33 33 33 32 31 30 29 30 31 32 33 34 34 31 27 25 24 24 23 23 24 24 24 24 24 24 23 23 23 23 23 24 24 24 24 24 24 24 24 25 25 26 27 28 29 29 29 29 29 29 29 28 28 29 30 30 31 32 32
29 29 30 30 29 29 29 28 28 28 28 28 28 29 29 29 29 29 30 30 30 30 30 30 30 30 30 29 28 27 25 25 26 27 28 29 30 31 29 26 24 23 23 22 21 21 21 21 22 22 22 21 20 20 20 20 20 21 21 21 22 22 22 22 22 22 23 24 25 25 26 26 27 27 27 27 27 26 26 26 27 27 28 28 29
29 29 29 29 29 28 28 28 28 28 28 28 28 28 27 27 27 27 27 27 27 27 27 27 27 27 26 25 23 22 22 23 25 26 26 27 29 28 25 23 22 22 22 20 19 19 18 19 19 19 19 19 18 18 19 19 19 19 19 20 20 20 20 20 20 20 21 22 22 23 23 24 25 25 25 24 24 24 23 23 24 24 25 26 26
29 29 29 28 28 27 27 27 28 28 28 28 27 27 26 26 26 26 26 25 25 25 25 25 25 24 23 21 20 21 22 24 24 23 24 26 27 25 22 21 22 21 20 18 17 17 17 17 17 17 17 17 17 18 18 18 18 18 18 19 19 19 18 18 18 18 19 19 20 20 21 21 22 21 21 21 20 20 20 21 21 22 23 23 24
28 28 27 27 27 27 27 27 27 27 27 27 27 26 26 26 25 25 24 24 24 24 24 24 23 22 21 20 20 21 23 24 23 21 22 25 24 22 20 20 21 20 18 16 15 15 15 16 15 16 16 16 16 17 17 17 17 17 17 17 17 17 16 16 16 16 16 17 17 17 18 18 18 18 18 18 18 18 19 19 20 21 21 22 22
27 26 26 26 26 27 27 27 26 26 26 26 26 26 26 25 24 24 23 23 23 23 23 22 21 21 20 21 21 22 23 23 21 20 21 23 22 20 19 20 20 18 16 15 14 14 15 15 15 15 15 14 15 15 15 15 15 16 15 15 15 15 15 15 14 14 14 14 14 15 15 16 16 17 17 17 17 17 18 19 19 20 20 21 21
26 26 26 26 27 27 27 26 26 26 26 26 26 25 24 24 23 23 23 24 24 24 23 22 21 21 21 22 22 22 23 22 20 18 20 22 21 19 18 19 19 17 15 14 14 14 14 14 14 14 13 13 13 13 14 14 14 15 15 14 14 13 13 13 13 12 12 12 13 13 14 15 15 16 16 16 16 17 17 18 18 19 19 19 20
27 28 28 28 28 28 27 26 26 27 26 26 25 24 23 23 24 25 26 26 25 24 24 23 22 22 22 22 22 22 23 22 19 18 19 20 19 18 18 19 18 16 14 14 14 14 14 14 13 13 13 13 13 13 13 14 14 14 14 13 13 12 12 11 11 11 11 12 12 13 13 14 14 15 15 15 15 16 16 16 17 17 18 18 18
28 29 29 29 29 29 28 27 27 27 27 26 25 25 24 25 26 27 27 27 26 26 26 25 24 23 23 22 21 22 23 22 19 17 19 20 18 17 18 18 17 15 14 14 14 14 13 13 13 13 13 13 13 13 14 14 14 14 13 12 12 12 12 11 12 12 13 13 12 13 12 13 13 13 14 14 14 14 14 14 14 15 15 15 16
29 30 30 30 30 30 30 29 29 28 28 28 28 27 27 28 29 29 29 28 28 29 27 26 26 25 23 22 22 23 24 22 19 17 19 19 18 17 18 18 16 15 14 14 14 14 13 13 13 13 13 13 14 13 13 13 13 13 13 12 12 12 13 13 14 14 14 13 13 13 12 12 11 12 12 12 13 12 12 12 12 12 12 13 13
29 30 30 31 31 31 32 31 30 30 30 31 30 30 30 31 31 31 30 30 31 31 29 28 27 26 24 23 23 23 24 23 20 18 19 19 18 17 18 18 16 15 15 15 15 14 14 13 14 14 13 14 14 13 13 13 13 13 13 13 14 14 14 15 15 16 15 14 13 12 12 11 10 10 11 11 11 10 10 11 11 10 10 10 11
30 30 31 31 32 33 33 33 32 32 33 33 32 32 33 33 33 33 33 33 33 32 31 30 29 26 25 24 24 24 25 24 20 18 18 19 18 18 19 19 17 15 15 15 15 15 14 14 14 13 13 13 13 12 12 13 14 14 14 15 15 16 16 16 17 17 16 14 13 12 11 10 10 10 9 9 8 9 9 9 8 8 8 8 9
31 32 32 33 34 35 35 35 34 35 36 35 34 35 35 35 35 35 35 35 35 34 33 31 29 27 26 25 25 25 25 24 21 19 18 18 18 18 19 19 18 16 16 16 16 15 15 14 14 13 12 12 12 12 12 13 14 15 15 16 17 18 18 18 18 17 17 15 13 11 10 10 9 9 8 7 7 7 7 6 6 6 6 6 7
33 33 34 34 36 37 37 37 37 38 38 37 36 37 36 36 36 37 37 36 36 36 34 32 31 29 27 26 26 26 26 25 22 20 19 19 19 19 20 20 19 17 17 17 17 16 15 15 13 12 12 12 12 12 13 14 15 16 17 18 19 19 19 19 19 18 18 16 14 12 11 10 10 9 8 7 6 6 5 4 4 4 4 4 5
Wind_Direction
259 259 259 258 257 256 256 256 256 255 255 254 253 252 251 251 250 250 249 249 249 249 250 250 249 248 247 247 246 246 245 245 245 245 244 243 243 242 241 241 241 240 240 239 238 238 238 239 239 240 240 241 242 241 239 237 236 236 236 237 239 240 242 243 244 243 242 243 244 245 246 249 251 253 256 258 259 261 263 265 266 267 267 268 267
257 257 257 257 257 256 256 256 256 256 256 255 254 253 252 251 251 250 250 249 248 248 248 249 249 248 248 247 247 247 247 246 246 246 246 245 244 244 242 242 242 242 241 241 240 239 239 239 239 240 241 241 242 243 243 242 241 240 240 239 239 240 240 242 243 244 244 244 246 247 247 248 249 251 252 254 256 258 261 263 265 266 267 267 267
259 258 258 257 256 256 256 256 256 256 256 256 255 254 252 251 250 250 249 249 249 248 247 247 247 247 247 247 247 247 247 247 247 247 246 246 246 245 245 243 243 242 242 242 242 242 241 241 241 241 241 242 243 243 244 244 244 244 243 243 243 243 243 243 244 245 245 245 245 246 247 248 249 250 251 253 254 256 258 259 261 263 264 264 265
261 260 259 258 257 256 256 255 256 256 256 256 255 254 252 251 250 249 249 249 248 248 248 247 246 246 246 246 247 247 247 247 247 247 247 247 247 246 246 246 245 244 244 243 242 242 242 242 242 242 242 243 243 244 244 245 245 245 245 245 246 246 247 248 249 248 248 247 246 246 246 247 248 249 250 251 252 253 255 256 257 258 259 260 261
261 260 260 260 259 257 256 254 254 254 255 255 254 254 253 252 251 250 249 249 249 248 248 247 247 246 246 246 246 247 247 247 246 246 246 246 247 247 247 247 247 246 246 245 244 243 242 242 242 242 243 243 243 244 244 245 245 246 246 246 247 247 248 249 251 252 252 252 251 250 248 248 248 248 249 249 250 251 252 253 254 255 256 257 258
260 260 260 260 260 259 257 255 254 253 253 254 254 254 253 253 253 252 251 250 249 249 249 248 248 247 247 246 246 246 247 247 247 246 246 246 246 247 247 247 247 247 247 247 246 246 245 243 243 242 242 242 243 243 244 245 245 246 246 247 247 247 248 250 251 252 253 254 254 254 254 253 252 252 251 250 251 251 252 252 253 253 254 256 257
262 261 260 260 260 260 259 257 256 254 253 253 254 254 253 252 253 252 252 251 250 249 249 249 249 249 248 248 247 247 247 247 247 247 246 246 246 246 246 246 246 246 247 247 247 247 247 246 246 245 244 243 243 243 243 244 245 245 246 247 247 247 248 249 250 251 253 254 254 255 256 256 256 256 256 255 254 254 254 254 254 254 254 254 255
261 261 261 261 260 261 260 259 258 257 255 254 254 255 254 253 252 252 252 252 251 250 250 249 249 249 249 249 249 249 249 248 248 248 247 246 245 245 245 245 245 245 246 246 247 247 247 247 247 247 247 246 245 244 244 244 244 245 245 246 247 247 248 249 250 251 252 253 254 255 255 256 257 257 257 258 257 257 257 257 257 256 256 255 255
261 261 261 261 261 261 261 261 260 260 259 257 257 256 256 255 253 253 253 253 253 253 252 250 249 249 249 250 250 250 250 249 249 249 248 247 246 246 246 246 246 246 246 246 246 247 247 247 248 248 247 247 247 247 246 246 245 245 245 245 246 247 247 248 249 250 251 252 253 254 255 255 256 257 257 258 258 258 258 258 258 258 258 258 257
262 262 261 261 261 261 261 261 261 260 260 260 259 259 259 258 256 255 254 254 254 254 253 252 251 249 249 249 249 249 250 250 250 250 250 249 249 248 247 247 246 246 247 247 247 247 247 247 248 248 248 248 247 247 247 247 247 247 247 247 246 246 247 248 249 250 251 252 253 254 255 255 256 256 257 257 257 257 258 258 258 258 259 259 258
262 262 262 262 262 262 261 261 261 261 261 260 260 260 260 259 259 257 256 255 254 253 253 253 252 251 249 249 249 249 250 251 252 252 252 251 251 250 249 249 248 248 248 248 248 248 248 248 248 248 248 248 248 248 248 248 248 248 248 248 248 248 248 248 248 249 250 251 252 253 254 255 255 256 257 257 257 257 257 257 258 258 258 259 259
260 261 261 261 262 262 262 262 262 262 262 262 261 261 260 260 260 259 258 257 256 255 254 254 253 252 251 251 250 250 250 250 252 253 254 254 253 252 251 250 249 249 249 249 249 249 249 248 248 248 249 249 249 249 249 249 249 249 249 249 249 249 249 249 249 250 250 250 251 252 253 254 255 256 256 257 257 257 256 256 257 257 258 258 259
261 260 260 260 260 261 261 262 262 262 262 262 262 262 261 261 261 260 260 259 258 257 256 255 255 254 253 252 252 251 251 251 252 253 254 255 255 255 254 253 252 251 250 249 249 249 249 249 249 249 249 249 249 249 249 250 250 250 250 250 250 250 250 250 250 251 251 251 251 252 253 254 254 255 256 257 257 258 257 257 256 256 257 258 258
263 262 261 260 259 259 259 260 260 260 261 261 261 261 261 261 261 260 260 259 259 258 258 257 257 256 255 254 253 252 252 252 253 253 254 255 255 256 256 256 255 254 253 252 251 250 250 250 250 250 250 250 250 250 250 250 250 251 251 251 251 251 251 251 251 252 252 252 252 253 254 254 255 255 256 257 258 259 259 259 258 257 257 257 258
264 263 263 262 261 260 259 259 259 259 259 260 260 260 260 260 260 260 260 260 259 259 259 258 258 257 257 256 255 254 254 253 254 254 254 254 255 255 256 256 256 256 255 254 254 253 252 251 251 251 251 251 251 251 251 251 251 251 251 251 252 252 252 252 252 252 253 253 253 253 254 255 255 256 256 257 258 258 259 260 260 260 259 259 259
264 263 263 263 263 262 261 261 261 260 260 260 260 260 260 260 260 260 260 260 260 260 259 259 258 258 258 257 257 256 256 255 254 254 254 255 255 255 256 256 256 256 257 257 256 255 254 253 253 252 252 252 253 253 253 252 252 252 252 252 252 252 253 253 253 253 253 254 254 254 255 255 256 256 257 257 258 258 258 259 260 260 260 260 260
263 263 263 263 263 263 262 262 262 262 261 261 261 261 261 261 261 261 261 261 261 261 260 260 259 259 258 258 258 258 257 257 256 255 254 254 254 255 255 255 256 256 257 257 258 257 257 256 255 254 253 253 253 253 254 254 254 254 253 253 253 253 253 253 253 254 254 254 255 255 255 255 256 256 257 257 257 258 258 258 259 259 259 260 260
262 262 262 262 262 262 262 262 262 262 262 262 261 261 261 261 261 262 262 261 261 261 261 261 260 260 259 259 259 258 258 257 257 257 256 255 255 254 254 255 256 256 257 258 258 259 259 259 259 258 256 255 254 253 253 254 254 254 255 254 254 254 254 254 254 254 254 255 255 255 256 256 256 257 257 257 258 258 258 258 258 259 259 259 259
261 261 261 261 261 261 261 261 261 261 261 261 261 261 261 261 261 262 262 261 261 261 261 261 261 261 261 260 260 259 258 258 257 257 257 257 257 256 256 256 256 256 257 258 259 259 259 260 260 260 260 259 257 256 255 254 254 254 254 255 255 255 255 255 255 255 255 256 256 256 256 257 257 257 257 258 258 258 258 258 258 259 259 259 259
261 261 261 261 261 261 261 261 260 260 260 260 260 260 260 260 260 261 261 261 261 261 261 261 261 261 261 261 261 260 260 259 258 258 257 257 257 258 258 258 258 258 258 258 259 259 259 259 260 260 261 261 261 260 258 257 256 255 255 255 255 255 255 256 256 256 257 257 257 257 257 257 257 258 258 258 258 259 258 258 258 258 258 259 259
260 260 260 261 261 261 261 261 261 260 260 260 260 260 260 259 259 259 260 260 261 261 261 261 261 262 261 261 261 261 261 260 260 260 259 259 259 258 259 259 259 259 259 259 259 259 259 259 260 260 260 261 262 262 262 261 260 259 258 257 257 256 256 256 257 257 257 258 258 258 258 258 259 259 258 259 259 259 259 259 258 258 257 257 257
259 259 260 260 260 260 260 260 260 260 260 259 259 259 259 259 258 258 258 259 259 260 260 260 261 261 261 262 261 261 261 261 261 261 261 261 261 261 261 261 260 260 259 259 259 259 259 260 260 261 261 262 262 263 263 264 264 264 263 262 261 260 259 259 258 258 258 258 258 258 259 259 259 258 258 258 258 258 258 258 259 258 258 257 257
260 260 260 260 259 259 259 259 259 259 259 259 259 259 259 259 259 258 258 258 258 258 259 259 260 261 261 261 261 261 261 261 262 262 263 263 263 263 262 262 261 261 260 260 260 260 260 260 261 261 262 263 263 264 265 266 266 267 267 266 266 265 264 263 262 261 260 259 259 258 258 258 258 257 257 257 257 257 257 257 257 258 258 259 259
260 260 260 260 260 259 259 259 259 259 259 259 259 259 259 259 259 259 258 258 258 258 258 259 259 260 260 260 261 261 261 261 261 262 263 263 264 264 264 263 263 262 262 261 261 261 261 261 261 262 263 263 264 265 266 267 268 268 268 268 268 268 267 265 264 262 260 259 258 257 257 257 256 256 256 256 256 257 257 258 258 259 259 260 261
260 260 260 259 259 259 259 258 258 258 258 258 258 259 259 259 259 259 259 258 258 258 258 258 259 259 259 259 259 260 260 261 261 262 262 263 264 264 265 265 265 264 263 262 261 261 261 262 262 263 264 265 265 266 267 267 268 268 269 269 269 268 267 265 263 260 258 257 257 256 255 255 255 255 256 257 258 259 259 261 262 263 264 265 266
260 259 259 258 258 258 258 258 258 258 258 258 258 259 259 259 259 259 259 259 258 258 258 258 258 258 258 258 258 259 260 260 261 261 262 262 263 264 265 266 266 266 265 264 263 262 262 262 263 263 264 265 265 266 266 267 268 268 268 268 267 266 265 263 261 259 258 257 256 255 255 255 255 256 258 259 260 262 263 265 266 267 268 268 268
260 259 258 258 258 258 258 259 259 259 258 258 258 258 258 258 258 258 258 259 259 259 258 258 257 257 257 257 257 258 259 260 260 261 261 262 262 263 264 265 266 267 267 267 267 266 265 265 265 265 264 265 265 265 266 267 267 267 267 267 266 265 265 264 262 261 260 258 257 257 256 257 257 259 260 261 263 264 265 266 267 267 267 267 267
258 257 258 259 259 260 260 260 259 259 258 258 258 258 258 258 258 258 257 257 257 257 256 256 256 256 256 256 257 257 258 259 260 260 260 260 261 262 263 264 266 267 268 269 269 269 269 269 268 268 268 268 268 268 268 268 267 267 267 267 267 267 266 265 264 262 261 260 259 259 259 260 261 262 263 264 264 264 265 265 265 266 266 266 266
258 259 260 260 260 260 260 259 258 258 257 257 257 257 258 257 257 256 256 255 254 254 255 255 255 255 256 256 256 257 258 258 258 259 259 260 261 262 263 264 265 266 267 268 269 270 270 270 270 270 270 270 269 269 268 267 267 267 268 268 268 267 266 265 264 263 262 261 261 261 262 263 263 264 264 264 264 264 265 265 265 266 266 266 265
261 262 262 261 261 261 260 259 257 257 256 256 255 254 254 254 253 254 254 255 255 255 256 256 256 257 257 257 257 257 258 258 259 260 261 262 263 264 265 265 266 267 267 268 268 269 270 270 270 271 271 270 269 268 267 266 266 266 267 267 266 266 265 265 264 264 263 263 263 263 264 264 264 264 264 264 265 265 265 265 265 264 264 264 263
261 261 261 261 261 260 259 259 259 258 258 257 256 254 253 253 253 254 255 255 256 256 256 256 256 256 256 256 257 257 258 260 261 262 263 264 265 266 267 267 268 268 269 270 270 271 271 272 273 273 273 271 268 266 265 265 265 265 265 265 264 264 265 265 265 265 264 264 264 265 265 264 264 264 264 264 263 263 263 262 262 261 261 261 261
259 259 259 259 258 258 258 259 259 259 259 259 258 257 257 256 256 256 256 256 255 255 255 254 254 254 255 255 256 257 258 259 260 261 263 264 265 266 267 268 269 270 271 271 272 272 273 275 275 274 271 267 265 264 264 265 265 264 264 264 264 264 264 265 265 265 265 265 265 264 263 262 262 262 261 260 260 260 260 260 260 259 259 259 259
256 256 256 256 256 256 257 257 257 257 257 258 258 258 258 257 257 256 256 256 255 255 254 254 254 255 255 256 257 258 259 260 261 262 263 264 265 267 268 269 270 271 271 271 272 274 277 276 273 270 267 266 266 266 266 265 265 265 265 265 264 263 262 262 262 262 262 262 261 260 259 259 259 258 257 257 257 258 258 259 259 258 258 258 258
254 254 253 254 254 254 254 254 254 254 254 254 255 255 255 255 255 255 254 254 254 254 254 254 255 255 256 258 259 259 261 262 263 264 266 267 269 270 270 270 270 269 270 273 276 278 276 272 269 268 268 268 268 267 266 265 265 264 264 263 261 260 259 259 259 259 260 259 258 258 257 256 256 255 255 256 256 258 259 259 258 258 257 257 258
252 252 252 252 252 252 252 252 252 252 252 252 252 252 252 252 252 252 252 252 252 252 253 254 254 255 256 257 259 260 261 263 264 266 268 269 270 269 269 268 268 269 273 277 277 274 271 269 269 269 268 267 266 265 265 264 263 262 261 260 259 259 259 258 258 258 258 257 256 255 254 253 253 254 255 256 257 259 259 259 258 257 256 257 258
251 250 250 250 250 250 250 250 250 250 249 249 249 248 248 248 248 248 248 249 249 250 250 251 252 253 254 255 257 259 261 263 265 267 268 267 267 266 266 267 269 273 276 275 271 268 267 268 268 268 267 266 265 264 263 261 260 259 259 258 257 257 257 257 256 255 254 254 254 254 253 254 255 256 257 259 259 259 259 257 256 256 256 257 259
247 247 248 248 248 247 247 247 247 246 246 245 244 243 243 243 243 243 244 244 245 246 246 247 248 250 252 254 256 258 260 262 264 264 263 263 263 264 266 268 272 274 273 269 266 265 266 266 266 266 265 263 261 259 258 258 257 257 258 258 257 256 256 255 255 254 254 254 254 254 255 256 257 258 260 260 260 259 257 256 256 256 257 259 260
243 243 244 244 244 244 244 243 242 241 240 240 239 239 238 238 238 239 240 240 241 242 243 245 247 248 250 252 254 256 258 259 258 258 259 260 263 265 267 271 273 273 270 266 265 264 264 263 263 262 260 258 257 256 256 257 258 259 261 263 262 261 260 259 258 257 256 255 255 255 255 256 258 259 259 259 259 258 256 255 255 256 257 258 260
239 239 240 241 241 241 240 239 238 236 235 235 234 234 234 234 235 236 237 238 239 241 242 244 245 247 249 251 253 254 254 254 255 257 259 262 265 267 270 273 274 271 268 267 265 262 259 257 257 257 258 259 260 261 262 264 266 268 269 270 269 268 267 265 263 260 258 256 256 256 256 256 256 256 257 257 257 256 254 253 253 254 254 255 257
236 236 236 237 237 237 237 236 234 233 231 230 230 230 230 231 231 233 234 236 238 239 240 242 244 246 248 250 251 251 251 253 256 258 261 264 267 270 273 274 272 269 267 265 262 258 254 252 254 257 261 265 267 270 272 273 274 274 273 271 270 268 267 265 262 260 258 256 255 254 253 253 253 254 254 255 255 254 253 253 252 252 252 253 255
233 233 233 233 233 233 232 232 231 230 229 228 227 227 226 227 227 229 231 233 236 238 240 242 244 245 246 248 250 252 255 257 258 261 265 267 269 272 274 272 268 265 263 260 256 253 251 251 253 257 261 265 268 270 272 273 273 273 271 269 267 266 264 261 257 255 254 254 253 251 250 250 251 252 253 253 254 254 255 255 255 255 255 255 255
231 230 230 229 228 228 228 229 229 228 227 226 224 224 223 224 225 228 230 233 236 239 241 242 244 245 247 250 253 257 259 259 260 264 268 270 271 273 272 268 263 259 255 252 249 249 250 251 253 256 259 261 264 265 267 269 270 269 268 267 266 264 259 255 251 249 250 250 250 249 249 250 251 252 252 253 255 257 259 260 261 261 260 258 257
227 226 226 225 225 225 225 226 226 226 225 223 223 223 223 224 226 229 231 234 237 240 242 243 245 248 251 254 257 259 261 261 262 266 270 271 272 271 266 260 255 252 248 246 246 248 250 252 254 256 259 261 263 265 267 268 269 268 267 266 264 260 254 249 247 245 246 248 249 250 251 251 251 252 253 255 258 261 263 265 266 265 263 261 259
222 222 222 221 222 222 223 224 224 223 223 223 223 224 225 226 228 231 235 238 241 242 244 246 248 251 254 257 259 261 263 264 265 268 270 270 269 264 256 249 247 244 242 242 244 247 250 254 257 259 262 264 266 268 269 269 268 267 266 265 262 257 250 245 244 244 247 250 253 254 254 254 255 255 257 259 261 263 266 268 268 267 265 263 261
218 219 219 219 220 221 221 222 222 222 223 224 224 225 227 228 230 234 238 241 243 245 247 248 250 253 256 258 260 263 265 267 268 270 269 267 263 255 245 239 238 236 235 238 242 246 251 256 259 261 264 266 267 268 268 268 266 265 264 262 258 252 246 242 241 245 249 253 256 259 260 260 260 259 259 259 261 264 267 268 267 265 262 261 260
217 218 219 219 220 220 221 221 221 222 224 225 225 225 228 230 234 237 240 243 246 249 250 251 253 255 257 259 261 265 268 269 271 271 268 264 257 246 236 231 229 229 230 235 241 245 250 255 259 261 263 265 265 265 265 264 262 261 260 255 250 245 241 237 237 241 247 253 259 263 264 264 263 261 259 260 263 266 267 267 265 262 260 259 258
218 218 218 218 219 221 222 222 222 223 226 227 226 226 229 232 237 241 244 247 250 252 253 254 256 257 258 259 262 265 268 270 271 269 265 260 251 239 229 225 222 222 226 233 239 243 247 252 256 258 260 261 261 261 260 258 256 254 250 244 239 237 236 234 235 239 245 252 259 266 268 268 265 261 260 263 267 269 269 268 265 264 262 262 261
219 219 219 219 220 222 223 224 224 225 227 229 229 229 231 234 238 243 246 250 252 254 256 257 259 259 260 260 262 265 268 270 269 265 260 256 247 234 225 220 217 218 223 231 236 240 243 248 252 254 257 258 259 257 254 251 248 246 242 236 232 232 233 233 236 240 244 250 259 267 270 269 264 261 261 265 268 269 269 267 265 263 264 264 263
221 220 220 221 222 224 225 226 226 228 230 231 231 232 234 237 240 244 248 251 254 256 259 260 262 262 262 262 262 264 267 268 267 262 256 251 243 231 222 217 214 216 222 229 234 236 239 243 247 250 253 255 256 253 249 245 243 240 236 231 229 229 231 233 236 240 244 248 255 262 265 264 261 258 258 260 262 263 261 260 259 258 257 257 255
222 222 221 222 223 225 227 228 229 231 234 235 235 236 238 240 243 246 249 253 256 259 261 262 263 263 263 263 263 264 265 265 263 258 252 247 240 230 222 216 213 213 219 227 231 233 235 239 243 246 249 251 251 250 248 244 240 237 233 228 226 227 230 232 235 239 242 245 249 254 254 253 252 253 254 255 258 258 256 253 252 251 248 245 243
224 223 223 223 224 226 227 228 230 233 236 237 238 240 242 244 246 248 251 254 257 259 261 263 264 264 263 263 263 263 263 262 259 254 248 244 238 229 221 217 214 212 216 223 228 230 232 235 237 241 245 248 250 251 251 247 241 237 232 227 225 225 228 231 235 238 241 243 245 246 243 239 238 242 248 252 254 256 257 255 251 245 238 232 228
Height
10517 10517 10518 10519 10520 10522 10523 10524 10526 10528 10529 10530 10533 10535 10537 10538 10540 10541 10541 10543 10544 10545 10546 10547 10548 10549 10550 10551 10552 10553 10554 10555 10556 10557 10558 10560 10562 10563 10565 10567 10569 10571 10572 10574 10576 10577 10579 10580 10582 10584 10587 10589 10591 10593 10596 10598 10600 10602 10604 10605 10606 10607 10608 10610 10611 10614 10617 10619 10620 10622 10624 10624 10625 10627 10628 10629 10629 10629 10631 10633 10635 10635 10637 10638 10640
10509 10509 10509 10510 10512 10514 10515 10516 10518 10519 10521 10522 10524 10526 10529 10530 10531 10532 10533 10535 10536 10537 10538 10539 10540 10541 10543 10544 10545 10546 10547 10548 10548 10549 10551 10552 10554 10555 10558 10560 10562 10564 10566 10568 10570 10571 10573 10574 10576 10577 10579 10581 10583 10585 10587 10589 10591 10593 10595 10596 10598 10598 10599 10601 10602 10604 10608 10611 10612 10614 10616 10616 10618 10620 10622 10622 10623 10624 10624 10626 10627 10628 10630 10631 10632
10499 10500 10500 10501 10504 10505 10507 10508 10509 10511 10512 10513 10514 10517 10520 10521 10523 10524 10525 10527 10528 10528 10530 10531 10532 10532 10534 10535 10537 10538 10539 10540 10540 10541 10543 10544 10546 10547 10550 10552 10554 10557 10559 10561 10563 10565 10567 10569 10570 10571 10573 10574 10576 10577 10579 10581 10583 10584 10586 10588 10589 10590 10591 10592 10593 10594 10597 10600 10603 10605 10607 10608 10609 10611 10614 10614 10615 10617 10618 10619 10621 10622 10623 10624 10624
10488 10490 10489 10491 10494 10496 10497 10499 10500 10501 10503 10503 10504 10506 10509 10511 10513 10514 10516 10517 10518 10519 10521 10522 10523 10524 10525 10527 10529 10530 10530 10531 10532 10533 10535 10536 10538 10539 10542 10544 10547 10549 10551 10553 10555 10557 10559 10561 10563 10564 10566 10567 10568 10569 10571 10572 10574 10575 10577 10579 10581 10582 10582 10583 10584 10585 10587 10589 10591 10594 10597 10598 10599 10601 10604 10605 10607 10609 10610 10611 10614 10616 10616 10616 10616
10478 10479 10479 10480 10484 10486 10487 10489 10490 10492 10493 10493 10493 10495 10498 10500 10502 10505 10507 10507 10509 10511 10512 10513 10514 10515 10517 10519 10520 10521 10521 10521 10522 10524 10526 10528 10530 10532 10534 10537 10539 10540 10542 10543 10545 10547 10549 10551 10553 10555 10557 10558 10560 10561 10563 10564 10565 10567 10568 10570 10572 10574 10575 10575 10576 10577 10578 10579 10580 10583 10586 10588 10589 10590 10592 10595 10597 10599 10601 10603 10606 10608 10609 10609 10610
10469 10469 10470 10472 10474 10475 10476 10478 10480 10482 10483 10482 10483 10485 10488 10491 10493 10495 10497 10498 10500 10501 10502 10504 10506 10507 10509 10511 10511 10511 10511 10511 10513 10515 10517 10519 10521 10524 10526 10528 10529 10530 10532 10534 10536 10538 10539 10542 10544 10546 10548 10549 10551 10553 10554 10556 10557 10558 10560 10562 10564 10566 10567 10567 10568 10569 10570 10570 10571 10572 10575 10577 10579 10579 10581 10585 10587 10588 10591 10594 10596 10599 10600 10601 10602
10459 10460 10461 10463 10464 10464 10466 10468 10470 10472 10474 10474 10474 10475 10478 10481 10483 10485 10486 10487 10490 10491 10492 10496 10498 10498 10500 10502 10502 10502 10502 10503 10505 10506 10508 10509 10511 10513 10514 10516 10518 10520 10522 10525 10526 10529 10531 10532 10534 10536 10538 10540 10541 10544 10546 10547 10549 10550 10552 10554 10556 10558 10559 10559 10560 10561 10561 10561 10563 10564 10565 10566 10568 10569 10569 10573 10577 10578 10580 10584 10586 10588 10590 10592 10593
10450 10450 10451 10454 10455 10455 10456 10458 10460 10462 10464 10465 10465 10465 10468 10472 10474 10475 10476 10477 10480 10481 10484 10487 10487 10488 10490 10492 10493 10493 10494 10495 10495 10494 10495 10497 10499 10501 10503 10505 10508 10511 10513 10515 10517 10519 10521 10523 10525 10526 10528 10529 10531 10534 10536 10538 10540 10541 10543 10545 10547 10549 10550 10551 10551 10552 10552 10553 10554 10555 10556 10557 10558 10558 10559 10562 10566 10568 10570 10573 10575 10576 10578 10581 10582
10441 10441 10442 10444 10445 10446 10447 10448 10450 10452 10454 10455 10456 10457 10459 10462 10464 10466 10467 10468 10469 10471 10473 10476 10477 10479 10482 10483 10482 10482 10483 10484 10483 10482 10484 10487 10490 10493 10495 10497 10499 10502 10504 10506 10507 10510 10512 10513 10515 10516 10517 10519 10521 10523 10525 10527 10529 10531 10533 10535 10538 10540 10541 10542 10543 10543 10544 10545 10545 10545 10547 10548 10547 10547 10548 10551 10555 10557 10559 10562 10564 10565 10566 10568 10569
10431 10432 10433 10434 10435 10436 10437 10438 10440 10442 10444 10445 10447 10448 10450 10452 10453 10456 10457 10458 10460 10462 10463 10464 10466 10469 10471 10470 10469 10470 10472 10473 10472 10473 10475 10479 10482 10484 10486 10488 10490 10492 10494 10495 10497 10499 10501 10503 10505 10506 10507 10508 10510 10513 10514 10516 10519 10521 10522 10524 10527 10529 10531 10532 10533 10534 10535 10536 10536 10535 10537 10538 10537 10536 10538 10540 10544 10547 10549 10550 10553 10554 10554 10556 10557
10420 10421 10422 10424 10425 10426 10427 10429 10430 10432 10434 10436 10437 10439 10440 10442 10443 10445 10447 10448 10450 10452 10453 10453 10454 10456 10458 10458 10458 10460 10462 10462 10463 10464 10466 10468 10470 10473 10475 10477 10480 10482 10484 10485 10487 10489 10490 10492 10494 10495 10496 10498 10500 10503 10504 10506 10509 10511 10512 10514 10516 10518 10520 10521 10522 10524 10525 10526 10526 10526 10527 10527 10526 10526 10527 10529 10532 10536 10538 10539 10541 10542 10542 10544 10545
10410 10410 10412 10413 10414 10415 10417 10419 10420 10422 10423 10425 10427 10428 10430 10431 10432 10434 10435 10437 10439 10442 10442 10442 10443 10444 10446 10447 10448 10451 10453 10453 10454 10455 10456 10457 10458 10460 10464 10467 10468 10471 10473 10474 10476 10477 10479 10480 10482 10484 10486 10487 10489 10491 10493 10496 10498 10500 10502 10504 10505 10507 10509 10511 10512 10513 10514 10516 10517 10517 10517 10517 10517 10517 10517 10517 10519 10522 10526 10529 10530 10530 10531 10533 10534
10399 10400 10401 10403 10404 10406 10407 10409 10410 10412 10413 10414 10416 10417 10419 10420 10421 10422 10424 10426 10428 10430 10431 10432 10433 10433 10434 10436 10437 10440 10442 10444 10446 10447 10447 10446 10447 10449 10453 10455 10457 10459 10461 10463 10464 10466 10467 10468 10470 10473 10475 10476 10477 10479 10482 10485 10487 10489 10491 10493 10494 10496 10497 10500 10501 10502 10503 10505 10507 10507 10506 10506 10508 10508 10507 10507 10508 10509 10512 10515 10518 10519 10521 10522 10522
10387 10388 10389 10392 10394 10396 10398 10399 10400 10401 10402 10403 10405 10406 10407 10408 10409 10410 10412 10414 10416 10418 10419 10421 10422 10422 10423 10425 10427 10430 10432 10434 10436 10437 10437 10436 10436 10438 10441 10443 10444 10446 10448 10450 10452 10454 10455 10456 10458 10461 10462 10464 10466 10467 10470 10473 10476 10478 10479 10481 10483 10484 10486 10488 10489 10490 10491 10493 10495 10497 10495 10495 10497 10498 10496 10497 10498 10498 10499 10501 10504 10506 10509 10511 10512
10373 10374 10376 10379 10382 10385 10387 10389 10390 10391 10392 10393 10394 10395 10396 10397 10398 10399 10401 10403 10405 10407 10408 10410 10411 10411 10412 10414 10416 10420 10422 10424 10426 10426 10425 10426 10426 10427 10429 10430 10431 10432 10434 10437 10439 10441 10442 10444 10446 10449 10451 10452 10454 10456 10458 10460 10463 10465 10467 10469 10471 10472 10474 10475 10476 10477 10478 10480 10483 10485 10485 10484 10485 10486 10486 10486 10487 10487 10487 10488 10490 10492 10495 10498 10500
10360 10361 10363 10366 10369 10372 10375 10377 10378 10380 10381 10383 10384 10384 10385 10386 10387 10388 10390 10392 10394 10395 10397 10399 10400 10400 10401 10403 10406 10409 10411 10414 10415 10415 10415 10415 10415 10416 10417 10417 10417 10419 10421 10422 10424 10426 10428 10430 10433 10435 10438 10440 10441 10444 10445 10447 10450 10453 10455 10457 10458 10459 10461 10462 10462 10463 10465 10468 10471 10473 10473 10473 10472 10473 10474 10474 10475 10475 10475 10477 10478 10478 10481 10484 10486
10347 10349 10351 10354 10356 10359 10361 10364 10366 10368 10369 10371 10373 10373 10374 10375 10376 10377 10379 10381 10382 10384 10385 10387 10388 10388 10389 10393 10396 10398 10400 10402 10403 10403 10404 10405 10404 10404 10404 10404 10405 10406 10408 10409 10411 10412 10414 10417 10418 10421 10424 10426 10428 10430 10432 10434 10437 10440 10442 10444 10445 10447 10447 10447 10447 10449 10452 10456 10458 10459 10460 10460 10460 10461 10460 10460 10461 10461 10463 10466 10465 10463 10467 10472 10474
10335 10337 10340 10342 10344 10347 10349 10352 10355 10357 10358 10359 10361 10362 10363 10364 10365 10366 10368 10370 10371 10372 10373 10375 10376 10376 10378 10382 10385 10387 10389 10390 10391 10391 10392 10392 10391 10391 10392 10392 10393 10395 10396 10397 10399 10400 10402 10403 10404 10406 10409 10411 10413 10416 10418 10421 10423 10425 10427 10429 10431 10432 10432 10431 10433 10436 10440 10442 10443 10444 10445 10446 10446 10447 10447 10447 10447 10446 10449 10453 10450 10448 10454 10459 10459
10324 10326 10329 10330 10332 10335 10338 10341 10343 10345 10346 10347 10349 10350 10352 10352 10353 10355 10356 10358 10359 10361 10362 10362 10364 10365 10368 10370 10373 10375 10377 10378 10379 10380 10380 10380 10379 10379 10380 10381 10382 10384 10385 10387 10388 10389 10390 10390 10391 10392 10394 10396 10398 10401 10404 10406 10408 10410 10411 10413 10416 10416 10415 10416 10419 10423 10426 10427 10428 10429 10430 10431 10431 10432 10432 10432 10431 10430 10433 10437 10436 10434 10439 10443 10444
10314 10316 10317 10319 10321 10324 10327 10329 10331 10333 10335 10336 10337 10339 10340 10341 10343 10344 10345 10346 10348 10349 10350 10351 10352 10354 10357 10358 10360 10363 10365 10366 10366 10367 10367 10368 10368 10368 10368 10369 10371 10374 10375 10376 10376 10376 10376 10377 10378 10379 10380 10381 10382 10385 10388 10391 10393 10395 10397 10398 10400 10399 10399 10402 10406 10409 10410 10412 10412 10412 10414 10415 10415 10416 10416 10415 10415 10415 10416 10419 10420 10421 10424 10427 10428
10304 10305 10307 10309 10311 10313 10315 10317 10319 10321 10323 10325 10326 10327 10328 10330 10332 10333 10334 10335 10336 10337 10338 10340 10341 10343 10345 10346 10349 10351 10352 10353 10353 10354 10355 10356 10356 10356 10356 10358 10360 10362 10362 10363 10362 10362 10362 10363 10363 10365 10367 10368 10368 10370 10372 10374 10376 10379 10382 10383 10384 10384 10386 10389 10392 10394 10395 10396 10396 10396 10397 10398 10399 10399 10398 10398 10399 10399 10399 10400 10402 10404 10407 10411 10412
10293 10295 10297 10300 10301 10302 10303 10305 10307 10309 10311 10313 10314 10315 10315 10317 10320 10322 10324 10325 10325 10326 10327 10329 10330 10332 10334 10336 10338 10340 10340 10340 10340 10341 10342 10343 10344 10344 10345 10346 10348 10348 10349 10350 10350 10350 10350 10350 10351 10352 10354 10355 10355 10356 10358 10359 10361 10363 10365 10366 10368 10370 10372 10375 10377 10379 10380 10380 10380 10381 10382 10382 10381 10381 10380 10381 10381 10381 10383 10384 10385 10386 10388 10391 10393
10284 10286 10288 10290 10291 10292 10293 10294 10296 10298 10300 10301 10303 10303 10304 10306 10309 10311 10313 10314 10314 10315 10317 10318 10320 10322 10324 10325 10326 10328 10328 10328 10328 10329 10330 10331 10332 10333 10333 10334 10335 10336 10338 10339 10338 10338 10339 10339 10340 10341 10342 10342 10343 10344 10345 10346 10347 10348 10349 10351 10353 10355 10357 10360 10362 10363 10363 10364 10364 10365 10365 10364 10363 10363 10362 10363 10364 10365 10367 10368 10369 10370 10372 10374 10376
10276 10278 10278 10279 10280 10281 10283 10285 10286 10288 10290 10291 10292 10293 10294 10296 10299 10300 10302 10303 10304 10305 10307 10308 10310 10313 10314 10314 10315 10316 10316 10316 10316 10317 10319 10320 10320 10321 10322 10323 10324 10325 10326 10327 10328 10328 10328 10328 10329 10330 10330 10331 10332 10333 10333 10334 10334 10335 10336 10337 10339 10341 10343 10345 10346 10347 10347 10348 10348 10349 10348 10347 10346 10346 10346 10347 10349 10351 10353 10354 10355 10357 10360 10363 10365
10267 10268 10269 10269 10270 10271 10273 10275 10276 10278 10280 10281 10282 10283 10285 10287 10289 10290 10292 10293 10294 10295 10297 10299 10301 10303 10304 10304 10304 10304 10305 10305 10306 10307 10309 10310 10310 10311 10312 10313 10314 10314 10315 10316 10317 10317 10318 10318 10319 10319 10320 10320 10321 10322 10323 10323 10322 10323 10324 10325 10327 10328 10329 10330 10331 10331 10332 10333 10333 10334 10333 10332 10331 10332 10334 10335 10337 10339 10341 10342 10343 10345 10348 10351 10353
10259 10259 10259 10259 10260 10261 10263 10265 10267 10269 10271 10272 10273 10274 10276 10278 10280 10281 10283 10284 10285 10287 10289 10290 10292 10293 10294 10294 10294 10295 10295 10296 10298 10298 10299 10300 10301 10302 10302 10302 10303 10303 10304 10305 10306 10307 10308 10308 10309 10310 10310 10311 10311 10311 10312 10312 10312 10313 10313 10314 10314 10315 10316 10317 10317 10318 10320 10321 10321 10321 10321 10320 10321 10323 10324 10325 10327 10329 10330 10331 10333 10334 10335 10337 10340
10249 10248 10248 10249 10251 10253 10255 10258 10260 10261 10262 10263 10264 10266 10268 10270 10271 10273 10274 10276 10277 10278 10280 10281 10282 10283 10284 10284 10285 10286 10287 10288 10289 10290 10291 10292 10292 10292 10292 10292 10292 10292 10293 10294 10295 10297 10298 10298 10299 10300 10301 10301 10301 10301 10302 10302 10302 10302 10302 10302 10303 10304 10305 10306 10307 10308 10310 10310 10311 10311 10310 10310 10312 10314 10315 10316 10318 10318 10319 10320 10322 10322 10322 10324 10327
10240 10239 10240 10242 10245 10247 10249 10251 10252 10252 10253 10254 10256 10258 10260 10261 10263 10265 10266 10267 10267 10268 10270 10271 10272 10274 10275 10276 10277 10278 10279 10280 10280 10281 10282 10282 10283 10283 10283 10283 10283 10283 10284 10284 10285 10286 10287 10288 10289 10289 10290 10291 10292 10292 10292 10292 10292 10292 10292 10292 10293 10294 10295 10296 10297 10298 10299 10300 10300 10300 10300 10301 10303 10304 10305 10307 10307 10306 10307 10309 10311 10311 10311 10313 10315
10231 10232 10235 10237 10238 10240 10241 10242 10243 10243 10245 10246 10248 10251 10252 10253 10254 10255 10256 10257 10258 10259 10261 10262 10263 10265 10267 10268 10269 10270 10271 10271 10271 10272 10273 10273 10274 10275 10275 10275 10275 10275 10275 10275 10276 10277 10277 10278 10279 10280 10281 10282 10283 10283 10283 10283 10283 10283 10283 10284 10285 10285 10285 10286 10287 10288 10288 10289 10290 10290 10290 10292 10293 10294 10295 10296 10295 10294 10296 10298 10299 10300 10300 10301 10302
10224 10227 10228 10230 10231 10232 10232 10233 10234 10236 10237 10238 10241 10243 10244 10244 10245 10246 10247 10248 10250 10252 10254 10255 10256 10258 10259 10260 10261 10261 10262 10262 10263 10264 10265 10266 10266 10266 10267 10267 10267 10267 10267 10267 10267 10268 10269 10269 10271 10272 10273 10274 10274 10274 10274 10274 10274 10274 10275 10276 10276 10276 10276 10277 10277 10278 10279 10279 10280 10281 10282 10283 10283 10283 10284 10285 10284 10284 10287 10288 10289 10290 10290 10290 10291
10218 10220 10221 10223 10224 10224 10223 10224 10226 10228 10228 10230 10232 10234 10235 10236 10238 10239 10240 10242 10244 10246 10248 10249 10249 10251 10251 10252 10253 10253 10254 10255 10256 10257 10258 10258 10258 10258 10258 10258 10258 10258 10258 10258 10259 10260 10261 10261 10263 10264 10265 10265 10265 10264 10265 10265 10266 10266 10267 10267 10268 10268 10268 10268 10269 10269 10269 10270 10271 10272 10273 10273 10273 10274 10275 10276 10275 10276 10278 10279 10280 10281 10281 10281 10281
10211 10213 10214 10215 10215 10215 10216 10218 10219 10220 10220 10221 10223 10225 10227 10229 10231 10232 10234 10236 10237 10238 10240 10241 10242 10243 10244 10245 10246 10247 10248 10249 10249 10250 10251 10251 10251 10251 10251 10250 10250 10250 10250 10251 10251 10252 10253 10255 10255 10256 10256 10256 10256 10256 10257 10258 10258 10258 10258 10259 10260 10261 10261 10260 10261 10261 10261 10262 10263 10264 10265 10265 10266 10267 10267 10268 10268 10268 10269 10270 10272 10273 10273 10273 10272
10204 10206 10206 10206 10207 10208 10210 10212 10213 10213 10214 10215 10216 10218 10220 10221 10223 10225 10226 10228 10229 10231 10232 10233 10234 10236 10237 10238 10239 10240 10241 10242 10242 10243 10243 10243 10243 10244 10244 10243 10243 10243 10242 10243 10244 10246 10247 10248 10247 10247 10247 10248 10249 10249 10250 10250 10251 10251 10251 10252 10253 10254 10254 10254 10254 10255 10255 10256 10257 10257 10258 10258 10259 10259 10259 10260 10260 10261 10262 10263 10265 10266 10265 10265 10264
10197 10198 10199 10199 10200 10202 10203 10205 10206 10207 10207 10209 10210 10211 10213 10214 10216 10218 10219 10220 10222 10223 10225 10226 10228 10229 10230 10231 10233 10233 10234 10235 10235 10236 10236 10236 10237 10237 10236 10236 10235 10235 10235 10237 10239 10241 10241 10240 10239 10240 10241 10242 10243 10243 10243 10244 10245 10245 10246 10246 10246 10247 10248 10248 10249 10249 10249 10250 10250 10250 10251 10251 10251 10251 10252 10252 10253 10254 10255 10257 10258 10258 10258 10257 10257
10190 10191 10191 10192 10194 10196 10197 10198 10200 10200 10202 10203 10204 10205 10206 10208 10209 10211 10212 10214 10216 10217 10218 10220 10221 10223 10224 10225 10226 10227 10228 10228 10229 10230 10230 10230 10230 10230 10229 10229 10229 10230 10232 10234 10235 10234 10234 10233 10234 10235 10236 10237 10237 10237 10238 10239 10239 10240 10240 10240 10241 10242 10243 10243 10243 10244 10243 10243 10243 10244 10244 10244 10244 10245 10246 10247 10248 10249 10249 10250 10251 10251 10251 10251 10251
10183 10184 10185 10187 10188 10190 10191 10192 10194 10195 10196 10197 10198 10200 10201 10202 10204 10205 10207 10208 10210 10211 10213 10214 10216 10217 10218 10219 10220 10221 10222 10223 10224 10224 10225 10224 10224 10223 10223 10223 10224 10227 10229 10230 10229 10229 10228 10229 10229 10230 10231 10232 10232 10232 10233 10234 10234 10235 10235 10236 10236 10237 10238 10238 10238 10238 10238 10238 10238 10238 10238 10238 10239 10240 10241 10241 10242 10243 10244 10244 10244 10245 10245 10245 10246
10178 10179 10180 10181 10183 10184 10186 10187 10188 10189 10191 10192 10193 10194 10196 10197 10199 10200 10202 10203 10205 10207 10208 10210 10211 10212 10213 10215 10216 10217 10218 10219 10219 10219 10219 10218 10218 10218 10218 10219 10221 10223 10224 10224 10224 10224 10224 10224 10225 10225 10226 10227 10227 10228 10229 10229 10230 10230 10230 10231 10232 10232 10232 10232 10232 10232 10232 10232 10232 10232 10233 10233 10234 10235 10236 10236 10237 10238 10238 10239 10239 10240 10240 10241 10241
10173 10174 10175 10176 10178 10179 10181 10182 10183 10185 10186 10187 10188 10190 10191 10193 10195 10196 10198 10199 10201 10202 10204 10206 10207 10208 10210 10211 10212 10213 10214 10214 10215 10214 10214 10214 10214 10213 10214 10216 10218 10219 10219 10219 10220 10220 10220 10220 10221 10221 10222 10222 10223 10224 10224 10225 10225 10225 10226 10226 10226 10226 10226 10227 10227 10227 10227 10227 10227 10228 10228 10229 10230 10230 10231 10231 10232 10233 10234 10235 10235 10236 10236 10237 10237
10168 10170 10171 10172 10173 10175 10176 10178 10179 10180 10182 10183 10185 10186 10188 10190 10191 10193 10194 10196 10197 10199 10201 10202 10204 10205 10206 10207 10208 10209 10210 10210 10210 10210 10210 10210 10210 10210 10211 10213 10213 10214 10214 10215 10215 10216 10216 10217 10217 10217 10217 10218 10219 10219 10220 10220 10220 10220 10221 10221 10221 10221 10222 10222 10222 10223 10223 10223 10224 10224 10225 10225 10226 10226 10227 10228 10229 10229 10230 10231 10232 10232 10233 10233 10233
10164 10165 10167 10168 10170 10171 10173 10174 10175 10177 10178 10180 10181 10183 10185 10187 10188 10190 10191 10193 10195 10196 10197 10199 10200 10201 10202 10203 10204 10205 10206 10206 10206 10206 10207 10206 10206 10206 10208 10209 10209 10209 10210 10211 10211 10212 10213 10213 10213 10214 10214 10214 10215 10215 10215 10215 10216 10216 10216 10217 10217 10217 10218 10218 10219 10219 10219 10220 10220 10221 10221 10222 10223 10223 10224 10225 10226 10226 10227 10228 10228 10229 10229 10229 10230
10160 10161 10163 10165 10166 10168 10170 10171 10172 10174 10175 10177 10179 10180 10182 10184 10185 10187 10188 10190 10191 10193 10194 10195 10196 10197 10198 10199 10200 10201 10201 10202 10202 10203 10203 10202 10202 10203 10204 10205 10205 10205 10206 10207 10207 10208 10209 10209 10210 10211 10211 10211 10211 10212 10212 10212 10212 10213 10213 10213 10213 10214 10214 10215 10215 10215 10216 10216 10217 10218 10219 10219 10220 10221 10222 10222 10223 10223 10224 10224 10225 10225 10226 10226 10226
10156 10158 10160 10162 10163 10165 10167 10168 10170 10171 10173 10175 10176 10178 10179 10181 10182 10184 10185 10187 10188 10189 10190 10191 10193 10194 10195 10196 10196 10197 10197 10198 10199 10199 10199 10199 10199 10200 10201 10201 10201 10201 10202 10203 10204 10205 10206 10206 10207 10208 10208 10208 10209 10209 10209 10209 10209 10210 10210 10210 10210 10211 10211 10211 10212 10212 10213 10214 10215 10215 10216 10217 10218 10218 10219 10219 10220 10220 10221 10221 10221 10221 10222 10222 10222
10153 10155 10157 10158 10160 10162 10164 10166 10167 10169 10171 10172 10174 10175 10176 10178 10179 10181 10182 10184 10185 10186 10187 10188 10189 10190 10191 10192 10192 10192 10193 10194 10195 10196 10195 10195 10196 10197 10197 10197 10197 10198 10199 10200 10201 10202 10203 10203 10204 10204 10205 10205 10205 10206 10206 10206 10206 10206 10207 10207 10207 10208 10208 10208 10209 10210 10210 10211 10212 10213 10214 10214 10215 10215 10216 10216 10217 10217 10217 10217 10217 10217 10217 10218 10218
10149 10151 10153 10155 10157 10159 10161 10163 10165 10166 10168 10169 10171 10172 10173 10175 10176 10178 10179 10180 10181 10183 10184 10185 10186 10187 10187 10188 10188 10188 10189 10190 10191 10192 10192 10192 10192 10193 10194 10194 10194 10195 10196 10197 10198 10199 10200 10200 10201 10201 10202 10202 10202 10203 10203 10203 10203 10204 10204 10204 10205 10205 10205 10206 10207 10207 10208 10209 10209 10210 10211 10211 10212 10212 10213 10213 10213 10214 10214 10214 10214 10214 10214 10214 10214
10146 10147 10149 10152 10154 10156 10158 10160 10161 10163 10165 10166 10168 10169 10170 10172 10173 10175 10176 10177 10178 10179 10180 10181 10182 10183 10183 10184 10184 10185 10185 10186 10187 10188 10188 10189 10189 10190 10191 10191 10191 10192 10194 10194 10195 10196 10197 10198 10198 10199 10199 10199 10199 10200 10200 10200 10201 10201 10201 10202 10202 10203 10203 10204 10204 10205 10206 10206 10207 10207 10208 10208 10209 10209 10210 10210 10210 10211 10211 10210 10210 10210 10211 10211 10211
10142 10144 10146 10148 10150 10152 10154 10156 10158 10160 10161 10163 10164 10166 10167 10169 10170 10171 10172 10173 10174 10175 10176 10177 10178 10179 10180 10180 10181 10181 10182 10183 10184 10185 10185 10185 10186 10187 10187 10188 10188 10190 10191 10192 10193 10194 10194 10195 10195 10196 10196 10197 10197 10197 10198 10198 10198 10198 10199 10199 10200 10200 10201 10201 10202 10203 10203 10204 10205 10205 10206 10206 10207 10207 10207 10208 10208 10208 10208 10208 10208 10208 10208 10208 10209
10138 10140 10142 10145 10147 10149 10151 10153 10155 10156 10158 10159 10161 10162 10164 10165 10166 10167 10168 10169 10170 10171 10172 10173 10174 10175 10176 10177 10177 10178 10178 10179 10180 10181 10182 10182 10183 10184 10184 10185 10186 10187 10188 10190 10190 10191 10192 10192 10193 10193 10194 10194 10194 10195 10195 10196 10196 10196 10196 10197 10197 10198 10199 10199 10200 10200 10201 10202 10203 10203 10204 10204 10205 10205 10205 10205 10205 10205 10205 10205 10205 10206 10206 10206 10206
10135 10137 10139 10141 10143 10145 10147 10149 10151 10153 10154 10156 10157 10159 10160 10161 10162 10163 10164 10165 10166 10166 10168 10169 10170 10171 10172 10173 10173 10174 10175 10175 10177 10178 10178 10179 10179 10180 10181 10182 10183 10184 10186 10187 10188 10189 10189 10190 10191 10191 10191 10192 10192 10192 10193 10193 10193 10194 10194 10195 10195 10196 10197 10198 10198 10199 10200 10201 10201 10201 10202 10203 10203 10203 10204 10204 10204 10204 10203 10203 10204 10204 10204 10204 10204
10131 10134 10136 10138 10140 10142 10143 10145 10147 10149 10150 10152 10153 10155 10156 10157 10158 10159 10160 10161 10162 10162 10163 10164 10165 10167 10168 10169 10170 10170 10171 10172 10173 10174 10175 10175 10176 10177 10178 10179 10180 10182 10183 10184 10185 10186 10187 10188 10188 10189 10189 10189 10190 10190 10190 10191 10191 10192 10192 10193 10193 10194 10195 10196 10196 10197 10198 10199 10200 10200 10201 10201 10202 10202 10202 10203 10202 10202 10202 10202 10202 10202 10202 10203 10203
10127 10129 10132 10134 10136 10137 10139 10141 10143 10144 10146 10148 10149 10151 10152 10153 10154 10155 10156 10157 10157 10158 10159 10160 10161 10162 10163 10164 10165 10166 10167 10168 10169 10170 10171 10172 10172 10174 10175 10176 10177 10179 10180 10182 10183 10184 10185 10185 10186 10186 10187 10187 10187 10188 10188 10189 10189 10190 10190 10191 10191 10192 10193 10194 10194 10195 10196 10197 10198 10199 10199 10200 10201 10201 10202 10202 10202 10201 10201 10201 10201 10201 10202 10202 10202
10123 10125 10127 10129 10131 10133 10135 10136 10138 10140 10141 10143 10145 10146 10147 10149 10150 10151 10152 10153 10153 10154 10155 10156 10157 10158 10159 10160 10161 10162 10163 10164 10165 10166 10167 10168 10169 10170 10172 10173 10174 10176 10177 10179 10180 10181 10182 10183 10183 10184 10184 10185 10185 10185 10186 10186 10187 10187 10188 10189 10189 10190 10191 10192 10193 10194 10195 10196 10197 10198 10198 10199 10200 10200 10201 10201 10201 10201 10200 10200 10201 10201 10201 10201 10202